Regional Weather Roundup
Issued by NWS Goodland, KS

Home | Current Version | Previous Version | Graphics & Text | Print | Product List | Glossary On
Versions: 1 2 3 4 5 6 7 8 9 10 11 12 13 14 15 16 17 18 19 20 21 22 23 24 25 26 27 28 29 30 31 32 33 34 35 36 37 38 39 40 41 42 43 44 45 46 47 48 49 50
000
ASUS43 KGLD 160608
RWRGLD

GOODLAND FORECAST AREA HOURLY WEATHER ROUNDUP
NATIONAL WEATHER SERVICE GOODLAND KS
1200 AM MDT WED APR 16 2014

...OFFICIAL OBSERVATIONS...

CITY           SKY/WX    TMP DP  RH WIND       PRES   REMARKS
GOODLAND KS    PTCLDY    45  25  45 S15       29.64F
HILL CITY KS   FAIR      52  17  25 S18G24    29.71F
IMPERIAL NEB   CLOUDY    49  27  42 S13       29.62F
MCCOOK NEB     MOCLDY    50  28  42 S20G29    29.64F
AKRON CO       CLOUDY    46  28  49 SW14      29.64F
BURLINGTON CO  PTCLDY    43  25  49 S17       29.64F
LIMON CO       MOCLDY    32  27  81 W3        29.70F
$$

...UNOFFICIAL OBSERVATIONS...

CITY           SKY/WX    TMP DP  RH WIND       PRES   REMARKS
COLBY KS       PTCLDY    48  28  46 SE17G23   29.67F
GOVE KS          N/A     50  32  50 SE14        N/A
LENORA KS        N/A     50  32  50 S21         N/A
LEOTI KS         N/A     48  32  53 S9          N/A
NORTON KS      PTCLDY    52  21  30 S14G21    29.68S
OBERLIN KS     FAIR      48  25  40 S17       29.65F
SHARON SPRINGS   N/A     42  26  53 S10         N/A
ST FRANCIS KS  MOCLDY    43  25  49 S8        29.61
WAKEENEY KS      N/A     51  17  26 MISG        N/A
KIT CARSON CO    N/A     39  22  51 MISG        N/A
WRAY CO        FAIR      50  27  40 SW8       29.62F
$$



USA.gov is the U.S. government's official web portal to all federal, state and local government web resources and services.